Weather History for Minneapolis Crystal, MN

Change the Weather History Date:

Sunday, October 6, 2013

  Actual Average Record
Temperature  
Mean Temperature 48 °F -  
Max Temperature 54 °F 62 °F 86 °F (2007)
Min Temperature 42 °F 39 °F 26 °F (2001)
Degree Days  
Heating Degree Days 18    
Moisture  
Dew Point 45 °F    
Average Humidity 89    
Maximum Humidity 93    
Minimum Humidity 82    
Precipitation  
Precipitation 0.07 in - - ()
Sea Level Pressure  
Sea Level Pressure 29.73 in    
Wind  
Wind Speed 4 mph (NNW)    
Max Wind Speed 16 mph    
Max Gust Speed 23 mph    
Visibility 7 miles    
Events Rain    
Averages and records for this station are not official NWS values.
T = Trace of Precipitation, MM = Missing Value Source: NWS Daily Summary

Daily Weather History Graph

Daily Weather History Graph

Search for Another Location

Airport:

Trip Planner

Search our weather history database for the weather conditions in past years. The results will help you decide how hot, cold, wet, or windy it might be!

Date:

Astronomy

Oct. 06, 2013 Rise Set
Actual Time 7:18 AM CDT 6:44 PM CDT
Civil Twilight 6:48 AM CDT 7:13 PM CDT
Nautical Twilight 6:14 AM CDT 7:47 PM CDT
Astronomical Twilight 5:40 AM CDT 8:21 PM CDT
Moon 9:09 AM CDT (10/6) 7:36 PM CDT (10/6)
Length of Visible Light 12h 24m
Length of Day
11h 26m
Waxing Crescent, 3% of the Moon is Illuminated
Oct 6
Waxing Crescent
Oct 11
First Quarter
Oct 18
Full
Oct 26
Last Quarter
Nov 3
New

Hourly Weather History & Observations

Time (CDT) Temp. Windchill Dew Point Humidity Pressure Visibility Wind Dir Wind Speed Gust Speed Precip Events Conditions
12:53 AM 42.1 °F - 39.9 °F 92% 29.73 in 9.0 mi Calm Calm - N/A   Clear
1:53 AM 42.1 °F - 39.9 °F 92% 29.73 in 10.0 mi Calm Calm - N/A   Mostly Cloudy
2:53 AM 42.1 °F - 39.9 °F 92% 29.71 in 10.0 mi Calm Calm - N/A   Clear
3:53 AM 43.0 °F - 39.9 °F 89% 29.70 in 10.0 mi Calm Calm - N/A   Mostly Cloudy
4:53 AM 45.0 °F - 42.1 °F 90% 29.69 in 10.0 mi Calm Calm - N/A   Overcast
5:53 AM 45.0 °F - 42.1 °F 90% 29.70 in 10.0 mi Calm Calm - N/A   Mostly Cloudy
6:53 AM 42.1 °F - 39.9 °F 92% 29.70 in 7.0 mi Calm Calm - N/A   Partly Cloudy
7:53 AM 45.0 °F - 42.1 °F 90% 29.70 in 10.0 mi Calm Calm - N/A   Overcast
8:10 AM 46.4 °F - 42.8 °F 87% 29.68 in 10.0 mi Calm Calm - N/A   Overcast
8:34 AM 46.4 °F - 42.8 °F 87% 29.68 in 10.0 mi Calm Calm - N/A   Overcast
8:53 AM 46.9 °F - 44.1 °F 90% 29.70 in 7.0 mi Calm Calm - N/A   Overcast
9:02 AM 46.4 °F - 44.6 °F 93% 29.69 in 1.8 mi Calm Calm - N/A   Overcast
9:13 AM 46.4 °F - 44.6 °F 93% 29.69 in 3.0 mi Calm Calm - 0.01 in   Overcast
9:29 AM 46.4 °F - 44.6 °F 93% 29.69 in 2.5 mi Calm Calm - 0.01 in   Overcast
9:53 AM 48.0 °F - 46.0 °F 93% 29.71 in 2.5 mi Calm Calm - 0.01 in   Overcast
10:00 AM 48.2 °F - 46.4 °F 93% 29.70 in 6.0 mi Calm Calm - N/A   Overcast
10:49 AM 50.0 °F - 46.4 °F 87% 29.70 in 1.8 mi NW 3.5 mph - N/A   Overcast
10:53 AM 50.0 °F - 46.9 °F 89% 29.72 in 1.5 mi NW 3.5 mph - 0.00 in Rain Light Rain
11:39 AM 51.8 °F - 48.2 °F 88% 29.71 in 3.0 mi North 5.8 mph - 0.03 in Rain Light Rain
11:53 AM 52.0 °F - 48.0 °F 86% 29.71 in 10.0 mi North 6.9 mph - 0.03 in   Overcast
12:04 PM 53.6 °F - 48.2 °F 82% 29.70 in 10.0 mi North 8.1 mph - N/A   Overcast
12:53 PM 52.0 °F - 48.0 °F 86% 29.72 in 4.0 mi NNW 8.1 mph - 0.01 in   Overcast
1:02 PM 51.8 °F - 48.2 °F 88% 29.70 in 3.0 mi North 6.9 mph - N/A   Overcast
1:53 PM 52.0 °F - 48.0 °F 86% 29.71 in 10.0 mi NNW 9.2 mph - N/A   Overcast
2:51 PM 51.8 °F - 46.4 °F 82% 29.70 in 10.0 mi North 11.5 mph - N/A   Overcast
2:53 PM 52.0 °F - 46.9 °F 83% 29.72 in 10.0 mi North 9.2 mph - N/A   Overcast
3:19 PM 51.8 °F - 48.2 °F 88% 29.71 in 4.0 mi NNW 11.5 mph - N/A   Overcast
3:26 PM 51.8 °F - 48.2 °F 88% 29.71 in 3.0 mi NNW 8.1 mph - N/A   Overcast
3:37 PM 51.8 °F - 48.2 °F 88% 29.71 in 4.0 mi NNW 9.2 mph - N/A   Overcast
3:53 PM 52.0 °F - 48.0 °F 86% 29.73 in 3.0 mi NNW 10.4 mph - N/A   Overcast
4:06 PM 51.8 °F - 46.4 °F 82% 29.73 in 2.5 mi NNW 16.1 mph 21.9 mph 0.00 in Rain Light Rain
4:11 PM 51.8 °F - 46.4 °F 82% 29.72 in 3.0 mi NNW 15.0 mph - 0.00 in Rain Light Rain
4:34 PM 51.8 °F - 48.2 °F 88% 29.73 in 10.0 mi NNW 13.8 mph 20.7 mph 0.00 in   Overcast
4:53 PM 51.1 °F - 46.9 °F 86% 29.75 in 10.0 mi NNW 12.7 mph - 0.00 in   Overcast
5:21 PM 50.0 °F - 44.6 °F 82% 29.75 in 10.0 mi NNW 15.0 mph 23.0 mph N/A   Overcast
5:34 PM 50.0 °F - 46.4 °F 87% 29.76 in 3.0 mi NNW 11.5 mph - N/A   Overcast
5:49 PM 48.2 °F - 46.4 °F 93% 29.77 in 4.0 mi NNW 11.5 mph - N/A   Overcast
5:53 PM 48.9 °F - 46.0 °F 90% 29.78 in 6.0 mi NNW 12.7 mph - N/A   Overcast
6:51 PM 48.2 °F - 46.4 °F 93% 29.78 in 5.0 mi NW 8.1 mph - 0.02 in Rain Light Rain
6:53 PM 48.9 °F - 46.0 °F 90% 29.80 in 6.0 mi NW 6.9 mph - 0.02 in Rain Light Rain
7:53 PM 48.0 °F - 45.0 °F 89% 29.82 in 10.0 mi NW 4.6 mph - 0.00 in   Mostly Cloudy
8:08 PM 46.4 °F 44.3 °F 44.6 °F 93% 29.81 in 10.0 mi NW 4.6 mph - N/A   Partly Cloudy
8:53 PM 45.0 °F 43.5 °F 43.0 °F 93% 29.83 in 10.0 mi West 3.5 mph - N/A   Clear
9:53 PM 45.0 °F - 43.0 °F 93% 29.84 in 10.0 mi Calm Calm - N/A   Clear
10:53 PM 45.0 °F 42.6 °F 43.0 °F 93% 29.85 in 10.0 mi West 4.6 mph - N/A   Clear
11:53 PM 46.0 °F 43.9 °F 43.0 °F 89% 29.84 in 10.0 mi WNW 4.6 mph - N/A   Clear